Other Surface Observations
Issued by NWS

Home | Current Version | Previous Version | Text Only | Print | Product List | Glossary On
Versions: 1 2 3 4 5 6 7 8 9 10 11 12 13 14 15 16 17 18 19 20 21 22 23 24 25 26 27 28 29 30 31 32 33 34 35 36 37 38 39 40 41 42 43 44 45 46 47 48 49 50
000
SXUS54 KWBC 300819
OSOGT
:SHEF ENCODED 6-MINUTE NOS MET DATA
:NATIONAL WATER LEVEL OBSERVATION NETWORK (NWLON)
:TA(AIR TEMP DEG F)  SLP(SEA LEVEL PRESSURE INCHES)
:UD(WIND DIRECTION WHOLE DEGREES) US (WIND SPEED MPH)
:TW(WATER TEMP DEG F) UG(WIND GUSTS MPH) WC(CONDUCTIVITY uMHOS/CM)
:-9999 (MISSING VALUES)
:TIME ZONE IS LST
:PROVIDED BY DOC/NOAA/NOS/CO-OPS, (301) 713-2540
:corms@noaa.gov
.A OBGN6 20210730 ES DH0300/TAIRG    62/UGIRG -9999/PLIRG 29.75/UDIRG -9999/USIRG -9999/TWIRG    68/WCIRG -9999
.E ALXN6 20210730 ES DH0300/PLIRG/DIN06/29.75/29.75
.E ALXN6 20210730 ES DH0300/TWIRG/DIN06/   69/   69
.E AGCM4 20210730 ES DH0300/TAIRG/DIN06/   65/   65
.E AGCM4 20210730 ES DH0300/PLIRG/DIN06/29.97/29.98
.E AGCM4 20210730 ES DH0300/TWIRG/DIN06/   72/   72
.E MBRM4 20210730 ES DH0300/TAIRG/DIN06/   65/   65
.E MBRM4 20210730 ES DH0300/PLIRG/DIN06/29.93/29.94
.E FTGM4 20210730 ES DH0300/TAIRG/DIN06/   64/   64
.E FTGM4 20210730 ES DH0300/PLIRG/DIN06/29.95/29.96
.E FTGM4 20210730 ES DH0300/USIRG/DIN06/    7/    8
.E FTGM4 20210730 ES DH0300/UDIRG/DIN06/  327/  325
.E FTGM4 20210730 ES DH0300/UGIRG/DIN06/   14/   12
.A OSGN6 20210730 ES DH0306/TAIRP    69/UGIRP    21/PLIRP 29.76/UDIRP   300/USIRP    19/TWIRP -9999/WCIRP -9999
.E OSGN6 20210730 ES DH0300/TAIRG/DIN06/   69/   69
.E OSGN6 20210730 ES DH0300/PLIRG/DIN06/29.76/29.76
.E OSGN6 20210730 ES DH0300/USIRG/DIN06/   19/   19
.E OSGN6 20210730 ES DH0300/UDIRG/DIN06/  314/  300
.E OSGN6 20210730 ES DH0300/UGIRG/DIN06/   23/   21
.E RCRN6 20210730 ES DH0300/TAIRG/DIN06/   66/   66
.E RCRN6 20210730 ES DH0300/PLIRG/DIN06/29.77/29.77
.E NIAN6 20210730 ES DH0300/TAIRP/DIN06/   67/   67
.E NIAN6 20210730 ES DH0300/PLIRP/DIN06/29.86/29.87
.E NIAN6 20210730 ES DH0300/TAIRG/DIN06/   67/   67
.E NIAN6 20210730 ES DH0300/PLIRG/DIN06/29.86/29.87
.A BUFN6 20210730 ES DH0306/TAIRG    70/UGIRG    10/PLIRG 29.81/UDIRG   316/USIRG     8/TWIRG    76/WCIRG -9999
.E PSTN6 20210730 ES DH0300/TAIRG/DIN06/   69/   69
.E PSTN6 20210730 ES DH0300/PLIRG/DIN06/29.86/29.86
.A EREP1 20210730 ES DH0306/TAIRG -9999/UGIRG    14/PLIRG -9999/UDIRG   339/USIRG    11/TWIRG -9999/WCIRG -9999
.A FAIO1 20210730 ES DH0306/TAIRG    70/UGIRG    19/PLIRG 29.91/UDIRG   341/USIRG    16/TWIRG    77/WCIRG -9999
.E CNDO1 20210730 ES DH0300/TAIRG/DIN06/   71/   71
.E CNDO1 20210730 ES DH0300/PLIRG/DIN06/29.96/29.96
.E CNDO1 20210730 ES DH0300/USIRG/DIN06/   14/   14
.E CNDO1 20210730 ES DH0300/UDIRG/DIN06/   12/    4
.E CNDO1 20210730 ES DH0300/UGIRG/DIN06/   18/   17
.E CNDO1 20210730 ES DH0300/TWIRG/DIN06/   77/   77
.E MRHO1 20210730 ES DH0306/TAIRP/DIN06/   73/   73
.E MRHO1 20210730 ES DH0306/PLIRP/DIN06/29.94/29.94
.E MRHO1 20210730 ES DH0306/USIRP/DIN06/   17/   17
.E MRHO1 20210730 ES DH0306/UDIRP/DIN06/    5/    3
.E MRHO1 20210730 ES DH0306/UGIRP/DIN06/   21/   21
.E MRHO1 20210730 ES DH0306/TWIRP/DIN06/   79/   79
.E MRHO1 20210730 ES DH0300/TAIRG/DIN06/   73/   73
.E MRHO1 20210730 ES DH0300/PLIRG/DIN06/29.93/29.94
.E MRHO1 20210730 ES DH0300/USIRG/DIN06/   15/   17
.E MRHO1 20210730 ES DH0300/UDIRG/DIN06/    5/    5
.E MRHO1 20210730 ES DH0300/UGIRG/DIN06/   20/   21
.E MRHO1 20210730 ES DH0300/TWIRG/DIN06/   79/   79
.A THRO1 20210730 ES DH0306/TAIRG -9999/UGIRG    12/PLIRG 29.95/UDIRG   344/USIRG     5/TWIRG -9999/WCIRG -9999
.E HRBM4 20210730 ES DH0300/TAIRP/DIN06/   67/-9999
.E HRBM4 20210730 ES DH0300/PLIRP/DIN06/29.95/-9999
.E HRBM4 20210730 ES DH0300/USIRP/DIN06/   18/-9999
.E HRBM4 20210730 ES DH0300/UDIRP/DIN06/   32/-9999
.E HRBM4 20210730 ES DH0300/UGIRP/DIN06/   22/-9999
.E HRBM4 20210730 ES DH0300/TWIRP/DIN06/   71/   71
.E HRBM4 20210730 ES DH0300/TAIRG/DIN06/   67/   67
.E HRBM4 20210730 ES DH0300/PLIRG/DIN06/29.95/29.95
.E HRBM4 20210730 ES DH0300/USIRG/DIN06/   18/   19
.E HRBM4 20210730 ES DH0300/UDIRG/DIN06/   32/   40
.E HRBM4 20210730 ES DH0300/UGIRG/DIN06/   22/   22
.E HRBM4 20210730 ES DH0300/TWIRG/DIN06/   71/   71
.A LPNM4 20210730 ES DH0306/TAIRG    61/UGIRG    17/PLIRG 30.03/UDIRG    18/USIRG    10/TWIRG    62/WCIRG -9999
.E MACM4 20210730 ES DH0300/TAIRG/DIN06/   59/   59
.E MACM4 20210730 ES DH0300/PLIRG/DIN06/30.06/30.06
.E MACM4 20210730 ES DH0300/USIRG/DIN06/   19/   18
.E MACM4 20210730 ES DH0300/UDIRG/DIN06/   28/   26
.E MACM4 20210730 ES DH0300/UGIRG/DIN06/   23/   23
.E MACM4 20210730 ES DH0300/TWIRG/DIN06/   71/   71
.E DTLM4 20210730 ES DH0300/TAIRG/DIN06/   59/   59
.E DTLM4 20210730 ES DH0300/PLIRG/DIN06/30.06/30.06
.E DTLM4 20210730 ES DH0300/USIRG/DIN06/   16/   16
.E DTLM4 20210730 ES DH0300/UDIRG/DIN06/   18/   14
.E DTLM4 20210730 ES DH0300/UGIRG/DIN06/   22/   20
.E DTLM4 20210730 ES DH0300/TWIRG/DIN06/   67/   67
.E RCKM4 20210730 ES DH0300/PLIRG/DIN06/30.08/30.08
.E RCKM4 20210730 ES DH0300/USIRG/DIN06/    8/    8
.E RCKM4 20210730 ES DH0300/UDIRG/DIN06/  317/  309
.E RCKM4 20210730 ES DH0300/UGIRG/DIN06/   11/   10
.E RCKM4 20210730 ES DH0300/TWIRG/DIN06/   68/   68
.E WNEM4 20210730 ES DH0300/TAIRG/DIN06/   55/   55
.E WNEM4 20210730 ES DH0300/PLIRG/DIN06/30.09/30.09
.E WNEM4 20210730 ES DH0300/USIRG/DIN06/    9/    8
.E WNEM4 20210730 ES DH0300/UDIRG/DIN06/  308/  311
.E WNEM4 20210730 ES DH0300/UGIRG/DIN06/   11/   12
.E WNEM4 20210730 ES DH0300/TWIRG/DIN06/   62/   62
.E LTRM4 20210730 ES DH0300/TAIRG/DIN06/   55/   55
.E LTRM4 20210730 ES DH0300/PLIRG/DIN06/30.09/30.09
.E LTRM4 20210730 ES DH0300/USIRG/DIN06/   10/    9
.E LTRM4 20210730 ES DH0300/UDIRG/DIN06/  329/  327
.E LTRM4 20210730 ES DH0300/UGIRG/DIN06/   13/   13
.E LTRM4 20210730 ES DH0300/TWIRG/DIN06/   60/   60
.E SWPM4 20210730 ES DH0300/TAIRG/DIN06/   55/   55
.E SWPM4 20210730 ES DH0300/PLIRG/DIN06/30.08/30.08
.E SWPM4 20210730 ES DH0300/USIRG/DIN06/    8/    7
.E SWPM4 20210730 ES DH0300/UDIRG/DIN06/  329/  335
.E SWPM4 20210730 ES DH0300/UGIRG/DIN06/   11/   10
.E SWPM4 20210730 ES DH0300/TWIRG/DIN06/   67/   67
.A LDTM4 20210730 ES DH0300/TAIRG    59/UGIRG     6/PLIRG 30.09/UDIRG    63/USIRG     4/TWIRG -9999/WCIRG -9999
.E HLNM4 20210730 ES DH0306/TAIRP/DIN06/   62/   62
.E HLNM4 20210730 ES DH0306/PLIRP/DIN06/30.07/30.07
.E HLNM4 20210730 ES DH0306/USIRP/DIN06/   13/   11
.E HLNM4 20210730 ES DH0306/UDIRP/DIN06/   10/    9
.E HLNM4 20210730 ES DH0306/UGIRP/DIN06/   15/   16
.E HLNM4 20210730 ES DH0306/TWIRP/DIN06/   72/   73
.A HLNM4 20210730 ES DH0300/TAIRG    63/UGIRG    15/PLIRG 30.07/UDIRG     6/USIRG    10/TWIRG    72/WCIRG -9999
.A CMTI2 20210730 CS DH0206/TAIRG    71/UGIRG    20/PLIRG 30.06/UDIRG     8/USIRG    11/TWIRG -9999/WCIRG -9999
.A KWNW3 20210730 CS DH0206/TAIRG    58/UGIRG -9999/PLIRG 30.10/UDIRG -9999/USIRG -9999/TWIRG -9999/WCIRG -9999
.A MNMM4 20210730 CS DH0206/TAIRG    58/UGIRG    17/PLIRG 30.12/UDIRG   342/USIRG    15/TWIRG    75/WCIRG -9999
.E PNLM4 20210730 ES DH0300/TAIRG/DIN06/   51/   51
.E PNLM4 20210730 ES DH0300/PLIRG/DIN06/30.09/30.09
.E PNLM4 20210730 ES DH0300/USIRG/DIN06/    6/    6
.E PNLM4 20210730 ES DH0300/UDIRG/DIN06/  279/  280
.E PNLM4 20210730 ES DH0300/UGIRG/DIN06/    8/    7
.E PNLM4 20210730 ES DH0300/TWIRG/DIN06/   68/   68
.E PTIM4 20210730 ES DH0300/TAIRG/DIN06/   59/   60
.E PTIM4 20210730 ES DH0300/PLIRG/DIN06/30.10/30.11
.E PTIM4 20210730 ES DH0300/USIRG/DIN06/   15/   14
.E PTIM4 20210730 ES DH0300/UDIRG/DIN06/  342/  350
.E PTIM4 20210730 ES DH0300/UGIRG/DIN06/   18/   20
.E MCGM4 20210730 ES DH0300/TAIRP/DIN06/   58/   58
.E MCGM4 20210730 ES DH0300/PLIRP/DIN06/30.13/30.14
.E MCGM4 20210730 ES DH0300/USIRP/DIN06/    2/    1
.E MCGM4 20210730 ES DH0300/UDIRP/DIN06/   12/  359
.E MCGM4 20210730 ES DH0300/UGIRP/DIN06/    5/    3
.E MCGM4 20210730 ES DH0300/TAIRG/DIN06/   58/   58
.E MCGM4 20210730 ES DH0300/PLIRG/DIN06/30.13/30.14
.E MCGM4 20210730 ES DH0300/USIRG/DIN06/    2/    1
.E MCGM4 20210730 ES DH0300/UDIRG/DIN06/   12/  359
.E MCGM4 20210730 ES DH0300/UGIRG/DIN06/    5/    3
.E DULM5 20210730 CS DH0200/TAIRG/DIN06/   65/   65
.E DULM5 20210730 CS DH0200/PLIRG/DIN06/30.16/30.16
.E DULM5 20210730 CS DH0200/USIRG/DIN06/    5/    4
.E DULM5 20210730 CS DH0200/UDIRG/DIN06/   20/   15
.E DULM5 20210730 CS DH0200/UGIRG/DIN06/    8/    7
.E DULM5 20210730 CS DH0200/TWIRG/DIN06/   68/   68
.E GDMM5 20210730 CS DH0200/TAIRG/DIN06/   57/   57
.E GDMM5 20210730 CS DH0200/PLIRG/DIN06/30.15/30.15
.E GDMM5 20210730 CS DH0200/TWIRG/DIN06/   54/   54



USA.gov is the U.S. government's official web portal to all federal, state and local government web resources and services.